User: anonymous   Login
Location: Karaa?a�
(36.7158°N, 30.4165°E)
Time: 14:01:35
(UTC+00:00)
Language:

Meteor 1-11 - Orbit

View from above orbital plane
View from above orbital plane
View from above satellite
View from above satellite

Ground track
Ground track

The orbit data is extracted from the following two-line orbital elements,

1  5917U 72022A   20192.20649396 -.00000039  00000-0 -29699-4 0  9991
2  5917  81.2233 236.3636 0029074 326.9123  33.0227 14.08704351479448
Epoch (UTC): 10 July 2020 04:57:21
Eccentricity: 0.0029074
inclination: 81.2233°
perigee height: 843 km
apogee height: 885 km
right ascension of ascending node: 236.3636°
argument of perigee: 326.9123°
revolutions per day: 14.08704351
mean anomaly at epoch: 33.0227°
orbit number at epoch: 47944

The dashed part of the orbit path shows where the satellite is in the earth's shadow,  

DLR